This is the latest recevied weather packets stored in our database for station/object KD6VPH. If no packets are shown the sender has not sent any weather packets the latest 10 day(s).
| Time | Temp. | Humidity | Pressure | Rain* | Wind** | Luminosity | Snow |
|---|---|---|---|---|---|---|---|
| 1777409733 | 12.78° C | 69% | 1021.7 hPa | 0 mm | - | 348 W/m² | - |
| 1777409133 | 12.78° C | 69% | 1021.8 hPa | 0 mm | - | 466 W/m² | - |
| 1777408533 | 12.78° C | 69% | 1021.8 hPa | 0 mm | - | 633 W/m² | - |
| 1777407933 | 12.22° C | 70% | 1021.8 hPa | 0 mm | - | 483 W/m² | - |
| 1777407412 | 12.22° C | 72% | 1021.9 hPa | 0 mm | - | 320 W/m² | - |
| 1777407333 | 12.22° C | 72% | 1021.9 hPa | 0 mm | - | 320 W/m² | - |
| 1777406733 | 11.67° C | 72% | 1021.9 hPa | 0 mm | - | 325 W/m² | - |
| 1777406133 | 11.67° C | 72% | 1021.9 hPa | 0 mm | - | 316 W/m² | - |
| 1777404933 | 11.67° C | 74% | 1021.7 hPa | 0 mm | - | 258 W/m² | - |
| 1777403734 | 11.11° C | 74% | 1021.6 hPa | 0 mm | - | 251 W/m² | - |
| 1777403133 | 11.11° C | 73% | 1021.5 hPa | 0 mm | - | 267 W/m² | - |
| 1777402533 | 11.11° C | 73% | 1021.6 hPa | 0 mm | - | 214 W/m² | - |
| 1777401934 | 11.67° C | 73% | 1021.5 hPa | 0 mm | - | 192 W/m² | - |
| 1777401334 | 11.67° C | 73% | 1021.5 hPa | 0 mm | - | 301 W/m² | - |
| 1777400734 | 11.67° C | 72% | 1021.3 hPa | 0 mm | - | 403 W/m² | - |
| 1777400134 | 11.67° C | 72% | 1021.2 hPa | 0 mm | - | 459 W/m² | - |
| 1777399534 | 11.67° C | 74% | 1021.3 hPa | 0 mm | - | 353 W/m² | - |
| 1777398933 | 11.67° C | 75% | 1021.3 hPa | 0 mm | - | 366 W/m² | - |
| 1777398334 | 11.67° C | 75% | 1021.2 hPa | 0 mm | - | 304 W/m² | - |
| 1777397734 | 11.11° C | 76% | 1021.2 hPa | 0 mm | - | 278 W/m² | - |
| 1777397134 | 11.11° C | 74% | 1021.1 hPa | 0 mm | - | 243 W/m² | - |
| 1777396534 | 11.11° C | 76% | 1021 hPa | 0 mm | - | 251 W/m² | - |
| 1777395934 | 11.11° C | 77% | 1020.9 hPa | 0 mm | - | 239 W/m² | - |
| 1777394734 | 11.11° C | 79% | 1020.8 hPa | 0 mm | - | 406 W/m² | - |
| 1777394134 | 10.56° C | 79% | 1020.7 hPa | 0 mm | - | 362 W/m² | - |
* Rain latest hour (hover to see other rain measurements)
** Current wind speed in m/s (hover to see current wind gust speed)